Temperature
21 21 21 21 18 17 19 19 19 19 19 19 20 19 18 18 18 18 18 18 18 18 17 17 17 17 17 17 17 17 17 17 17 17 17 17 17 17 17 18 18 18 18 18 17 17 17 17 18
21 21 21 21 17 18 19 19 19 19 20 20 20 19 18 18 18 18 18 18 18 18 18 17 17 17 17 17 17 17 17 17 17 17 17 17 17 17 17 17 17 17 17 17 17 17 17 17 17
21 21 21 17 17 18 19 19 19 20 20 20 19 19 18 18 18 18 18 18 18 18 18 17 17 17 17 17 17 17 17 17 17 17 17 17 17 17 17 17 17 17 17 17 17 17 17 17 17
22 21 20 17 19 19 19 19 19 20 20 20 19 18 18 18 18 18 18 18 18 18 18 17 17 17 17 17 17 17 17 17 17 17 17 17 17 17 17 17 17 17 17 17 17 17 17 17 17
22 21 18 18 19 19 19 19 20 19 19 19 19 18 18 18 18 18 18 18 18 18 17 17 17 17 17 17 17 17 17 17 17 17 17 17 17 16 17 17 17 17 17 17 17 17 17 17 17
22 18 17 18 19 19 19 20 20 19 19 19 19 18 18 18 18 18 18 18 18 18 17 17 17 17 17 17 17 17 17 17 17 17 16 16 16 16 16 17 16 16 16 16 16 16 16 16 16
20 16 17 18 18 19 20 20 19 19 19 19 19 18 18 18 18 18 18 18 18 18 17 17 17 17 17 17 17 17 17 17 17 16 16 16 16 16 16 16 16 16 16 16 16 16 16 16 16
21 17 18 18 18 19 20 20 20 19 19 19 19 18 18 18 18 18 18 18 18 17 17 17 17 17 17 17 17 17 17 17 16 16 16 16 16 16 16 16 16 16 16 16 16 16 16 16 16
21 17 17 18 18 19 20 20 20 20 19 19 19 19 19 18 18 18 18 18 18 17 17 17 17 17 17 17 17 17 17 16 16 16 16 16 16 16 16 16 16 16 16 16 16 16 16 16 16
20 17 18 19 18 19 19 19 19 19 18 18 18 18 18 18 18 18 18 18 18 18 17 17 17 17 17 17 17 17 16 16 16 16 16 16 16 16 16 16 15 15 15 15 15 15 15 15 15
19 18 19 19 20 20 19 19 19 19 17 18 18 18 18 18 18 18 18 18 18 18 17 17 17 17 17 17 17 17 16 16 16 16 16 16 16 16 15 15 15 15 15 15 15 15 15 15 15
19 19 19 20 20 20 19 19 19 18 19 19 19 19 18 18 18 18 18 18 18 18 17 17 17 17 17 17 17 17 16 16 16 16 16 16 16 15 15 15 15 15 15 15 15 15 15 15 15
19 19 20 20 20 20 19 19 18 18 19 19 19 19 18 18 18 18 18 18 18 18 17 17 17 17 17 17 16 16 16 16 16 16 16 15 15 15 15 15 15 15 15 15 15 15 15 15 15
19 19 19 19 19 19 19 18 18 18 18 19 19 18 18 18 18 18 18 18 18 18 18 17 17 17 17 17 16 16 16 16 16 16 15 15 15 15 15 15 15 15 15 15 15 15 15 15 15
20 19 19 19 19 19 19 17 17 18 18 18 18 18 18 18 18 18 18 18 18 18 18 17 17 17 17 17 16 16 16 16 16 16 15 15 15 15 15 15 15 15 15 15 15 15 15 15 14
19 18 18 18 18 19 18 17 17 18 18 17 18 18 18 18 18 18 18 18 18 18 17 17 17 17 17 16 16 16 16 16 16 15 15 15 15 15 15 15 14 14 14 14 14 14 14 14 14
17 17 18 18 18 18 17 17 16 17 17 16 17 18 18 18 18 18 18 18 18 18 18 17 17 17 17 16 16 16 16 16 15 15 15 15 15 14 14 14 14 14 14 14 14 14 14 14 14
18 18 18 17 17 17 16 16 16 16 16 16 16 17 17 18 18 18 18 18 18 18 18 17 17 17 16 16 16 16 16 15 15 15 15 14 14 14 14 14 14 14 14 14 14 14 14 14 14
18 17 17 17 17 17 16 16 15 15 15 15 16 16 17 17 17 17 18 18 17 17 17 17 17 17 16 16 16 16 15 15 15 15 14 14 14 14 14 14 14 14 14 14 14 14 13 13 13
18 17 17 17 17 17 16 15 15 15 15 15 15 16 16 16 17 17 17 17 17 17 17 17 17 17 16 16 16 15 15 15 15 14 14 14 14 14 14 14 14 13 13 13 13 13 13 13 13
18 17 17 17 17 16 16 15 15 15 15 15 16 16 16 16 16 17 17 17 17 17 17 16 16 16 16 16 15 15 15 15 15 14 14 14 14 14 14 13 13 13 13 13 13 13 13 13 13
18 18 17 17 16 15 16 15 15 14 14 14 15 15 15 16 16 16 16 16 16 16 16 16 16 16 16 15 15 15 15 14 14 14 14 14 14 13 13 13 13 13 13 13 13 13 13 13 13
18 18 17 16 15 15 15 15 14 14 14 14 14 15 15 16 16 16 16 16 16 16 16 16 16 15 15 15 15 15 14 14 14 14 13 13 13 13 13 13 13 13 13 12 12 12 12 12 12
17 16 15 14 14 15 15 14 14 13 14 14 14 15 15 16 15 16 16 16 16 15 15 15 15 15 15 15 14 14 14 14 14 14 13 13 13 13 13 13 12 12 12 12 12 12 12 12 12
17 15 15 15 14 14 14 14 14 15 14 14 14 15 15 15 15 15 15 15 15 15 15 15 15 15 14 14 14 14 14 14 13 13 13 13 13 13 12 12 12 12 12 12 12 12 12 12 12
16 16 15 15 14 14 14 14 14 14 14 15 15 15 15 15 15 15 15 15 15 15 15 15 15 14 14 14 14 14 13 13 13 13 13 13 12 12 12 12 12 12 12 11 11 11 11 11 11
17 15 15 14 14 14 13 13 14 14 13 13 14 14 15 15 15 15 15 15 15 15 15 14 14 14 14 13 13 13 13 13 13 13 12 12 12 12 12 12 11 11 11 11 11 11 11 11 11
16 14 13 14 14 14 14 14 14 14 13 13 13 13 14 15 15 15 14 14 14 14 14 14 14 14 13 13 13 13 13 12 12 12 12 12 12 12 12 11 11 11 11 11 11 11 11 11 11
15 15 13 12 13 13 13 14 14 14 14 13 13 14 14 14 15 15 14 14 14 14 14 14 13 13 13 13 13 13 12 12 12 12 12 12 11 11 11 11 11 11 11 11 11 11 11 11 11
16 15 13 14 13 11 12 13 15 13 13 13 13 14 14 14 14 14 14 14 14 13 13 13 13 13 13 13 13 12 12 12 12 12 11 11 11 11 11 11 11 11 11 11 10 10 10 10 10
Wind_Speed
2 3 3 4 6 6 4 3 1 2 3 3 4 6 6 4 3 2 2 1 2 2 1 4 6 7 8 8 9 10 10 10 10 10 10 10 9 9 9 9 9 9 9 9 8 8 8 8 7
1 2 4 5 5 5 3 2 2 2 4 3 5 5 5 4 2 2 0 1 3 3 3 4 6 7 7 8 9 9 10 10 11 11 11 10 9 9 9 9 9 9 9 9 8 8 8 8 8
2 4 5 5 5 4 2 0 2 3 3 2 4 4 4 2 1 1 1 2 3 4 4 5 7 7 7 8 9 9 10 10 10 11 11 11 10 9 9 9 9 8 8 8 8 8 8 8 8
4 5 5 6 6 1 2 2 3 3 4 5 4 4 3 2 1 1 3 4 5 4 4 4 7 7 7 8 9 9 10 10 10 10 10 10 10 10 10 9 8 8 8 8 8 8 7 8 8
4 5 6 5 3 2 2 1 3 4 3 4 4 4 3 5 3 5 6 6 6 4 4 4 6 7 7 8 8 9 10 10 10 10 10 10 10 10 10 10 9 8 8 8 7 7 7 8 8
5 5 5 3 2 2 2 2 4 5 4 4 4 4 2 3 4 4 5 5 4 4 4 4 5 6 7 7 8 8 9 10 9 9 9 9 9 9 9 10 10 9 8 7 7 7 7 8 8
5 5 4 3 2 2 1 2 4 4 4 2 3 4 1 2 1 3 5 5 5 4 4 4 4 4 5 6 7 8 8 9 9 9 9 9 9 8 9 9 9 10 8 8 8 8 8 8 8
5 5 4 2 3 1 0 2 2 4 2 2 4 5 3 3 3 5 6 5 5 4 4 3 3 4 4 4 6 7 7 8 8 8 8 8 8 8 8 8 9 10 10 8 8 8 8 9 9
4 5 3 3 4 2 1 2 2 3 5 3 2 2 2 6 7 7 5 4 3 3 2 2 3 3 4 4 5 6 6 7 7 7 7 8 7 7 7 8 8 9 10 10 9 10 10 10 9
5 4 3 3 4 3 1 2 3 4 4 3 4 4 6 8 7 6 4 3 1 0 1 1 2 2 3 3 5 5 5 6 6 6 6 6 6 6 7 8 9 9 9 9 9 9 9 8 7
4 4 2 2 3 3 3 2 2 6 2 3 4 5 6 7 6 5 4 3 2 2 1 1 1 2 2 2 3 3 4 4 5 6 5 5 6 6 7 7 7 8 8 7 7 7 6 6 5
4 2 2 2 2 2 3 3 3 3 3 3 5 7 7 7 6 6 5 3 2 2 1 1 1 2 2 2 2 3 3 3 4 4 5 4 3 4 4 4 5 6 5 5 5 4 5 5 5
3 2 3 4 4 3 4 4 3 1 1 3 6 7 6 6 5 4 3 2 2 2 1 1 2 2 2 2 2 2 2 2 3 4 5 4 3 3 3 4 4 5 5 4 4 4 4 4 4
3 4 3 3 3 2 4 2 2 1 2 5 5 4 4 5 5 3 3 3 2 2 2 2 2 2 3 2 2 2 2 3 3 3 4 4 3 3 3 3 3 4 4 4 4 4 4 3 4
4 5 5 3 2 1 4 4 1 1 2 4 3 3 3 3 3 4 4 4 4 3 3 3 3 2 3 2 2 3 3 4 3 3 3 4 3 3 3 2 2 3 4 4 5 5 5 4 4
4 4 2 3 2 1 4 2 4 0 3 2 2 2 2 2 2 3 3 3 3 3 3 3 3 3 3 2 2 3 4 4 4 4 4 4 4 4 3 2 2 3 4 4 3 3 4 4 4
4 2 0 3 2 2 3 3 3 0 2 2 2 2 2 2 1 2 2 3 3 4 4 4 3 3 3 3 3 3 4 4 4 4 4 4 4 4 4 3 2 3 4 3 3 3 3 3 3
3 2 1 2 2 2 2 3 3 1 2 3 3 2 2 2 3 2 1 2 2 3 3 3 3 3 3 3 3 2 3 3 4 4 3 4 4 4 4 3 3 4 3 3 3 3 3 3 2
4 3 1 3 2 1 3 4 4 3 2 3 3 3 3 3 3 1 1 1 2 2 3 3 3 2 3 2 2 1 1 1 1 2 3 3 3 3 4 3 3 3 2 2 2 3 3 3 2
4 3 1 3 1 1 2 4 4 3 4 5 5 5 4 2 1 1 1 2 2 2 3 4 3 3 3 2 2 2 1 1 0 2 3 3 3 3 3 3 2 2 2 3 3 3 2 2 2
2 5 4 3 2 2 1 5 4 3 3 3 3 3 3 4 3 1 1 1 2 1 2 3 3 3 3 2 3 3 2 2 2 2 2 3 3 2 3 2 2 2 2 1 1 2 2 1 1
3 4 5 3 1 2 0 4 6 4 3 3 4 3 3 2 2 2 1 1 1 1 2 2 2 3 2 3 4 4 3 2 1 1 1 1 2 2 2 2 2 2 2 1 1 1 1 2 1
4 1 3 2 2 1 1 2 7 2 4 6 5 5 4 3 3 2 2 2 1 1 2 2 3 3 2 3 3 4 3 1 0 1 1 1 2 2 2 2 1 1 1 1 1 1 1 1 2
3 5 6 5 4 2 3 4 6 4 6 5 4 4 4 4 3 2 1 1 1 1 2 2 3 2 2 3 3 3 3 2 2 1 1 1 1 1 2 1 1 1 1 1 0 0 1 1 1
5 5 3 4 3 5 2 3 7 6 6 5 6 6 5 4 3 2 1 1 1 1 1 1 3 2 2 2 2 3 3 3 3 1 1 0 1 1 1 1 0 0 0 1 1 1 0 1 1
2 6 5 4 4 5 3 5 6 4 3 3 3 4 3 3 3 3 2 2 2 1 1 1 2 2 1 2 2 1 2 2 1 1 1 2 2 2 2 0 0 0 1 1 1 1 1 0 1
3 2 4 5 1 3 6 6 7 1 2 1 1 3 4 4 4 3 2 2 2 2 1 2 2 2 1 2 2 1 1 1 1 1 1 1 2 1 1 1 1 1 1 1 1 1 1 0 1
3 6 5 4 2 4 6 5 5 5 4 3 3 4 4 3 3 3 3 3 2 2 2 1 2 2 2 1 2 2 2 2 2 1 1 1 2 1 1 1 2 2 1 1 1 1 1 1 1
2 3 4 3 3 4 4 7 5 6 6 6 7 6 5 5 5 4 3 3 2 2 1 1 1 1 0 1 2 2 2 2 2 2 2 2 2 2 2 2 2 2 2 2 2 2 1 1 1
3 5 6 3 4 4 3 7 5 4 5 5 6 5 4 4 3 3 3 2 2 2 2 2 2 1 2 2 2 2 2 2 2 2 3 3 3 3 3 2 2 3 3 3 3 3 2 2 2
Wind_Direction
7 67 74 57 55 56 54 6 43 62 55 43 65 81 94 81 81 119 292 152 134 129 110 99 92 84 77 72 72 69 69 69 69 69 70 72 76 79 81 82 85 87 86 85 87 88 84 84 87
83 80 56 59 78 78 34 356 55 70 136 131 75 71 72 59 54 107 340 181 139 127 106 97 96 86 79 76 74 71 69 68 66 68 70 73 74 74 75 79 82 81 83 84 84 85 81 81 85
83 59 74 67 81 118 122 58 109 75 90 89 73 58 73 69 74 167 242 154 126 105 97 97 94 87 82 79 77 74 71 67 65 67 67 67 70 72 71 76 77 79 81 83 82 82 77 80 83
78 47 57 70 76 84 147 160 143 108 59 48 89 66 52 26 137 160 117 117 111 95 89 98 94 87 82 78 76 74 71 68 66 66 67 67 67 70 69 73 77 79 82 81 79 80 78 82 83
60 72 64 63 54 24 43 103 105 92 68 50 80 88 38 3 58 99 108 109 109 94 78 86 89 85 84 80 77 74 70 66 64 63 63 64 64 66 67 66 68 76 83 79 77 77 80 83 84
57 67 81 83 51 19 24 56 85 85 86 75 86 97 47 11 72 105 109 103 95 92 73 65 80 81 81 78 75 73 69 65 63 61 60 60 62 62 63 62 60 60 69 76 75 73 79 80 79
95 86 101 109 87 44 64 71 90 102 88 86 113 103 57 359 68 106 100 87 76 70 63 45 52 65 73 73 73 71 67 63 61 60 58 57 59 60 59 59 57 55 60 69 68 69 78 78 74
112 98 86 85 108 67 16 82 98 104 104 97 106 126 186 220 120 97 84 73 68 60 49 36 34 44 46 51 63 65 62 58 55 54 55 54 52 51 53 53 54 55 56 64 68 68 71 73 72
84 80 118 166 156 164 126 98 68 75 88 73 81 131 161 132 114 99 85 64 60 61 38 36 35 37 44 45 51 50 48 47 48 48 49 48 43 42 44 47 51 54 55 56 61 63 66 67 65
77 111 178 187 166 153 120 107 117 87 71 55 60 65 92 114 119 120 124 130 132 116 36 40 43 48 56 51 44 36 36 39 42 46 47 47 45 42 42 40 43 46 49 51 55 58 59 61 58
95 141 160 126 146 136 119 87 75 120 119 193 169 145 125 119 127 141 154 161 191 191 149 98 69 59 68 53 53 41 37 38 37 37 43 50 49 42 39 36 32 35 38 41 43 47 50 58 61
96 85 125 124 111 103 121 118 86 111 193 188 159 143 138 139 153 168 176 171 163 138 154 117 108 84 69 67 61 58 51 43 36 34 43 56 53 42 38 37 32 35 37 37 44 52 53 59 60
88 76 64 90 83 93 95 95 110 34 76 95 111 119 142 155 171 184 171 157 141 141 149 155 132 113 86 73 54 58 54 50 44 47 46 61 63 54 45 35 34 29 33 37 53 63 64 61 58
107 94 70 60 75 66 97 56 81 292 85 102 122 145 167 173 179 168 163 170 172 177 174 159 128 118 97 93 79 56 53 55 58 59 56 63 71 66 60 42 35 30 29 39 61 71 75 67 62
93 75 39 27 53 57 94 25 286 244 99 114 147 170 178 192 180 180 191 188 191 192 178 166 150 117 108 102 90 73 61 66 64 60 58 62 71 75 70 58 36 29 36 44 58 60 68 66 61
60 60 36 331 23 36 112 247 277 113 118 140 191 192 199 223 210 211 202 190 186 176 168 171 156 133 122 110 91 76 68 69 65 67 64 57 57 67 71 60 32 36 59 58 61 59 59 53 52
39 83 198 310 347 83 124 229 276 119 143 190 227 222 221 255 287 251 215 193 182 177 172 163 153 147 146 119 88 77 70 66 64 69 63 57 58 63 73 63 41 53 65 61 63 61 77 70 55
202 178 204 273 311 93 166 240 273 242 186 212 225 230 232 240 256 249 201 185 165 155 156 154 153 146 136 115 92 76 60 50 54 60 56 61 61 63 71 64 49 63 65 57 55 65 60 72 62
157 151 218 267 280 128 218 249 269 251 221 229 230 226 225 243 269 300 112 111 129 128 140 149 143 144 138 139 147 140 145 35 41 45 44 54 60 65 71 63 58 63 72 74 75 77 63 52 46
132 138 234 299 336 167 248 274 270 234 225 223 221 221 217 224 308 348 56 79 115 159 164 157 160 162 159 171 172 152 141 123 92 28 33 38 51 56 68 73 63 66 69 59 64 78 77 50 43
171 179 200 222 356 34 23 314 280 264 243 240 236 224 213 195 203 209 108 115 100 107 154 158 171 167 157 136 109 90 74 52 40 12 3 12 28 43 57 75 85 74 80 90 85 104 112 112 25
239 225 183 168 114 283 106 284 277 256 271 249 239 222 215 211 193 173 160 154 157 180 124 121 141 142 143 139 134 132 133 158 216 243 281 7 29 29 45 67 92 96 92 107 113 104 126 136 141
215 108 114 112 133 348 317 223 285 288 256 250 235 222 220 210 190 180 179 188 190 129 120 113 121 128 132 134 146 141 137 147 111 59 51 5 7 18 36 60 83 84 84 117 88 102 121 138 160
117 69 58 53 70 303 240 195 276 243 230 241 228 222 215 204 191 185 174 106 69 66 95 98 104 124 131 129 131 137 142 128 109 72 45 337 330 357 13 59 77 84 93 107 145 126 141 145 146
78 86 32 357 359 257 254 209 251 252 237 223 216 216 212 197 176 172 151 121 100 87 110 111 109 107 129 135 146 155 153 147 156 183 200 249 314 318 302 13 48 125 150 148 123 90 72 156 153
153 139 158 212 238 278 296 239 256 265 271 243 202 191 188 195 186 181 189 178 178 185 160 136 132 119 137 150 164 156 155 161 179 189 197 221 243 250 249 260 233 166 141 135 129 110 256 163 185
132 159 163 146 198 271 280 285 300 322 351 15 155 165 195 200 193 189 185 186 186 189 194 177 156 148 165 175 165 156 161 168 199 209 200 224 264 270 240 215 225 250 186 161 139 170 228 250 240
138 143 102 124 179 266 287 278 260 264 259 241 216 207 214 207 201 199 195 199 206 200 191 170 170 184 199 197 184 173 198 211 209 199 231 247 262 277 269 246 233 236 231 199 172 208 226 198 266
91 104 110 120 159 180 270 273 235 229 225 221 225 220 218 218 211 205 205 203 206 203 181 183 186 188 228 236 207 187 210 220 208 219 239 243 253 253 246 248 240 236 238 230 207 217 207 201 254
183 177 152 167 228 192 218 269 276 240 237 225 230 225 220 218 209 201 195 192 204 214 212 208 204 218 236 232 216 206 215 214 215 237 246 240 252 251 240 242 247 242 239 233 218 222 219 209 224
Height
1494 1494 1495 1496 1500 1513 1517 1514 1510 1510 1511 1511 1510 1511 1513 1516 1519 1524 1520 1517 1516 1516 1516 1516 1516 1515 1515 1515 1515 1514 1514 1513 1513 1512 1512 1511 1511 1511 1511 1511 1511 1511 1511 1511 1511 1511 1511 1512 1512
1494 1495 1497 1498 1510 1525 1522 1514 1512 1511 1511 1512 1512 1513 1514 1516 1517 1518 1518 1517 1517 1517 1517 1517 1517 1517 1517 1517 1516 1516 1516 1515 1514 1514 1513 1513 1513 1513 1512 1512 1512 1512 1511 1511 1512 1512 1512 1512 1512
1495 1496 1498 1503 1515 1523 1520 1514 1512 1511 1512 1512 1514 1515 1516 1518 1519 1519 1519 1518 1518 1518 1518 1518 1519 1519 1518 1518 1518 1518 1517 1517 1516 1515 1515 1514 1514 1514 1513 1513 1513 1512 1512 1512 1512 1512 1512 1512 1513
1497 1499 1501 1510 1517 1516 1514 1513 1512 1512 1513 1514 1515 1517 1519 1521 1521 1520 1519 1518 1518 1519 1520 1520 1520 1520 1520 1520 1520 1519 1519 1518 1518 1517 1517 1516 1515 1515 1515 1514 1514 1513 1513 1513 1513 1513 1513 1513 1513
1498 1500 1509 1518 1518 1515 1513 1513 1513 1513 1515 1516 1516 1519 1521 1522 1522 1522 1521 1521 1521 1521 1522 1522 1522 1522 1522 1522 1521 1521 1520 1520 1519 1518 1518 1517 1517 1516 1516 1515 1515 1514 1513 1513 1513 1514 1514 1514 1514
1499 1503 1519 1524 1520 1516 1514 1514 1514 1515 1516 1517 1518 1520 1523 1524 1523 1524 1523 1524 1524 1524 1524 1524 1524 1524 1524 1523 1523 1522 1522 1521 1520 1520 1519 1518 1518 1517 1517 1516 1515 1515 1514 1514 1514 1514 1514 1515 1515
1502 1509 1519 1521 1521 1518 1516 1515 1515 1516 1517 1519 1520 1522 1524 1525 1525 1525 1525 1526 1526 1526 1526 1526 1526 1526 1525 1525 1525 1524 1523 1523 1522 1521 1521 1520 1519 1519 1518 1518 1517 1516 1515 1515 1515 1515 1515 1515 1515
1502 1509 1519 1522 1521 1520 1516 1516 1517 1518 1519 1520 1521 1523 1524 1525 1525 1526 1527 1527 1527 1528 1528 1528 1528 1528 1527 1526 1526 1526 1525 1524 1523 1523 1522 1521 1521 1520 1520 1519 1519 1518 1516 1516 1516 1516 1516 1516 1516
1503 1515 1523 1521 1520 1519 1516 1517 1518 1519 1520 1521 1522 1523 1525 1525 1526 1526 1527 1528 1528 1529 1529 1529 1529 1529 1528 1528 1528 1527 1526 1526 1525 1524 1524 1523 1522 1522 1521 1520 1520 1519 1518 1518 1517 1517 1517 1517 1517
1505 1518 1518 1515 1515 1516 1517 1517 1519 1520 1521 1522 1523 1524 1525 1525 1526 1526 1527 1528 1528 1529 1530 1530 1530 1530 1530 1529 1529 1528 1528 1527 1526 1526 1525 1524 1524 1523 1522 1522 1521 1520 1520 1519 1518 1518 1518 1518 1518
1507 1514 1513 1513 1514 1515 1517 1519 1519 1520 1523 1523 1523 1524 1525 1526 1527 1527 1528 1528 1529 1530 1530 1530 1530 1531 1530 1530 1530 1529 1529 1528 1528 1527 1526 1525 1525 1524 1523 1523 1522 1521 1520 1519 1519 1519 1519 1519 1519
1510 1512 1512 1514 1515 1516 1517 1519 1521 1521 1523 1523 1524 1525 1525 1526 1527 1527 1528 1529 1530 1530 1530 1531 1531 1531 1531 1531 1531 1530 1530 1529 1529 1528 1527 1526 1526 1525 1524 1524 1523 1522 1520 1519 1518 1518 1519 1520 1520
1511 1513 1514 1515 1516 1517 1518 1520 1521 1523 1523 1523 1524 1525 1526 1526 1527 1528 1529 1530 1530 1530 1531 1531 1531 1532 1532 1531 1531 1531 1530 1530 1529 1529 1528 1527 1527 1526 1525 1524 1523 1522 1521 1518 1517 1518 1520 1521 1521
1513 1514 1515 1516 1517 1518 1519 1521 1522 1523 1523 1524 1524 1525 1526 1526 1527 1528 1529 1529 1530 1531 1531 1532 1532 1532 1532 1532 1531 1531 1531 1531 1530 1529 1529 1528 1527 1527 1526 1525 1524 1523 1521 1519 1519 1519 1520 1521 1522
1513 1516 1518 1518 1518 1519 1520 1524 1524 1523 1523 1523 1524 1525 1525 1526 1527 1528 1529 1529 1530 1531 1531 1532 1532 1532 1532 1532 1532 1532 1531 1531 1530 1530 1529 1529 1528 1528 1527 1526 1525 1524 1523 1521 1521 1521 1521 1521 1522
1516 1521 1526 1521 1519 1520 1524 1531 1524 1524 1523 1523 1524 1524 1525 1526 1527 1528 1529 1529 1530 1531 1531 1531 1532 1532 1532 1532 1532 1532 1531 1531 1531 1530 1530 1529 1529 1528 1527 1526 1525 1525 1524 1522 1522 1521 1522 1522 1522
1524 1530 1529 1525 1520 1521 1524 1529 1524 1523 1523 1523 1524 1524 1525 1525 1526 1527 1528 1529 1529 1530 1530 1531 1531 1531 1532 1532 1532 1532 1531 1531 1531 1530 1530 1530 1529 1528 1527 1526 1526 1525 1524 1524 1523 1523 1523 1523 1523
1529 1529 1529 1529 1523 1523 1526 1527 1524 1523 1523 1523 1523 1523 1524 1524 1525 1526 1527 1528 1528 1529 1529 1530 1530 1531 1531 1531 1531 1531 1531 1531 1531 1530 1530 1530 1529 1528 1527 1527 1526 1525 1525 1524 1524 1524 1524 1524 1524
1522 1527 1530 1528 1523 1525 1527 1527 1524 1523 1523 1523 1522 1522 1523 1523 1524 1525 1525 1526 1527 1528 1528 1529 1529 1530 1530 1530 1530 1530 1530 1530 1530 1530 1530 1530 1529 1528 1527 1526 1526 1525 1525 1525 1524 1524 1524 1524 1524
1522 1528 1530 1527 1523 1525 1528 1527 1523 1522 1521 1521 1520 1520 1521 1522 1522 1523 1524 1525 1525 1526 1526 1527 1527 1528 1529 1529 1529 1529 1530 1530 1530 1530 1530 1529 1529 1528 1527 1526 1526 1525 1525 1525 1524 1524 1524 1524 1524
1523 1526 1527 1528 1526 1526 1528 1530 1525 1521 1520 1520 1520 1519 1520 1520 1521 1521 1522 1523 1524 1524 1525 1526 1527 1527 1528 1528 1529 1529 1529 1529 1529 1529 1529 1528 1528 1527 1527 1526 1525 1525 1525 1524 1524 1524 1524 1524 1524
1525 1519 1521 1524 1531 1536 1532 1541 1527 1522 1521 1519 1518 1518 1519 1519 1520 1520 1521 1522 1522 1523 1524 1524 1525 1526 1527 1527 1527 1527 1527 1527 1527 1528 1527 1527 1527 1527 1526 1525 1525 1524 1524 1524 1524 1524 1523 1523 1523
1518 1517 1521 1525 1531 1537 1535 1540 1532 1523 1522 1518 1516 1516 1517 1518 1518 1519 1520 1521 1521 1522 1522 1523 1524 1524 1525 1525 1526 1526 1526 1526 1526 1527 1527 1526 1526 1525 1525 1524 1524 1523 1523 1522 1523 1523 1522 1523 1523
1516 1521 1526 1532 1536 1544 1536 1540 1535 1525 1518 1515 1513 1514 1515 1516 1517 1518 1519 1520 1521 1521 1522 1522 1522 1523 1524 1524 1524 1525 1525 1525 1525 1525 1525 1524 1524 1524 1523 1523 1522 1522 1521 1521 1521 1521 1521 1521 1521
1518 1530 1544 1545 1550 1546 1534 1537 1531 1515 1512 1511 1511 1512 1513 1514 1515 1517 1518 1518 1519 1520 1520 1521 1521 1521 1522 1522 1523 1523 1523 1523 1523 1523 1523 1523 1522 1522 1521 1521 1520 1520 1520 1519 1519 1519 1519 1519 1520
1521 1527 1543 1550 1552 1546 1535 1536 1522 1511 1509 1508 1508 1509 1511 1512 1514 1515 1516 1517 1518 1519 1519 1519 1520 1520 1521 1521 1521 1521 1521 1521 1521 1521 1521 1521 1520 1520 1520 1520 1519 1518 1518 1518 1518 1518 1518 1518 1518
1521 1527 1528 1540 1543 1546 1540 1530 1517 1510 1509 1508 1508 1508 1509 1510 1512 1513 1514 1516 1516 1517 1517 1518 1518 1519 1519 1519 1519 1519 1520 1520 1520 1520 1519 1519 1519 1518 1518 1517 1517 1517 1516 1516 1516 1516 1516 1516 1516
1517 1524 1533 1539 1547 1549 1540 1533 1526 1513 1510 1509 1508 1507 1508 1509 1510 1511 1512 1513 1514 1515 1515 1516 1517 1517 1517 1517 1517 1517 1518 1518 1518 1518 1517 1517 1516 1516 1516 1515 1515 1514 1514 1514 1514 1514 1514 1514 1513
1522 1526 1531 1539 1541 1549 1547 1534 1510 1508 1506 1506 1505 1505 1505 1506 1507 1508 1510 1511 1512 1513 1513 1514 1514 1515 1515 1515 1515 1515 1515 1515 1515 1515 1515 1514 1514 1514 1513 1512 1512 1512 1512 1511 1511 1511 1511 1511 1511
1517 1521 1528 1537 1540 1543 1545 1531 1504 1503 1502 1502 1502 1503 1503 1504 1505 1506 1507 1508 1509 1510 1510 1511 1511 1512 1512 1512 1512 1512 1512 1512 1512 1512 1512 1511 1511 1511 1510 1510 1509 1509 1508 1508 1508 1508 1508 1508 1508